Weather History for Kirksville, MO

Change the Weather History Date:

Saturday, December 1, 2012

  Actual Average Record
Temperature  
Mean Temperature 48 °F 33 °F  
Max Temperature 60 °F 42 °F 66 °F (1970)
Min Temperature 35 °F 24 °F 3 °F (1985)
Degree Days  
Heating Degree Days 17 32  
Month to date heating degree days 17 32  
Since 1 July heating degree days 1287 1253  
Cooling Degree Days 0 0  
Month to date cooling degree days 0 0  
Year to date cooling degree days 1321 939  
Moisture  
Dew Point 49 °F    
Average Humidity 86    
Maximum Humidity 93    
Minimum Humidity 78    
Precipitation  
Precipitation 0.00 in 0.07 in 1.17 in (1945)
Month to date precipitation 0.00 0.07  
Year to date precipitation 26.42 37.63  
Sea Level Pressure  
Sea Level Pressure 29.94 in    
Wind  
Wind Speed 7 mph (South)    
Max Wind Speed 14 mph    
Max Gust Speed 17 mph    
Visibility 7 miles    
Events      
T = Trace of Precipitation, MM = Missing Value Source: NWS Daily Summary

Daily Weather History Graph

Daily Weather History Graph

Search for Another Location

Airport:

Trip Planner

Search our weather history database for the weather conditions in past years. The results will help you decide how hot, cold, wet, or windy it might be!

Date:

Astronomy

Dec. 01, 2012 Rise Set
Actual Time 7:13 AM CST 4:45 PM CST
Civil Twilight 6:43 AM CST 5:15 PM CST
Nautical Twilight 6:09 AM CST 5:48 PM CST
Astronomical Twilight 5:37 AM CST 6:21 PM CST
Moon 7:35 PM CST (12/1) 9:26 AM CST (12/1)
Length of Visible Light 10h 31m
Length of Day
9h 31m
Waning Gibbous, 91% of the Moon is Illuminated
Dec 1
Waning Gibbous
Dec 6
Last Quarter
Dec 13
New
Dec 19
First Quarter
Dec 28
Full

Hourly Weather History & Observations

Time (CST) Temp. Windchill Dew Point Humidity Pressure Visibility Wind Dir Wind Speed Gust Speed Precip Events Conditions
12:55 AM 36.0 °F 33.3 °F 33.1 °F 89% 30.06 in 8.0 mi SE 3.5 mph - N/A   Clear
1:55 AM 37.9 °F 32.7 °F 34.0 °F 86% 30.05 in 9.0 mi SE 6.9 mph - N/A   Clear
2:55 AM 37.9 °F 33.5 °F 35.1 °F 89% 30.05 in 9.0 mi SSE 5.8 mph - N/A   Clear
3:55 AM 37.9 °F 32.7 °F 36.0 °F 93% 30.04 in 7.0 mi SSE 6.9 mph - N/A   Clear
4:55 AM 39.0 °F 34.8 °F 37.0 °F 93% 30.02 in 6.0 mi SE 5.8 mph - N/A   Clear
5:47 AM 39.2 °F 35.0 °F 37.4 °F 93% 29.99 in 3.0 mi SSE 5.8 mph - N/A   Mostly Cloudy
5:55 AM 42.1 °F 37.7 °F 39.9 °F 92% 30.01 in 3.0 mi SSE 6.9 mph - N/A   Mostly Cloudy
6:07 AM 42.8 °F 39.3 °F 42.8 °F 100% 29.98 in 4.0 mi South 5.8 mph - N/A   Overcast
6:29 AM 44.6 °F 41.4 °F 44.6 °F 100% 29.98 in 4.0 mi SSE 5.8 mph - N/A   Overcast
6:55 AM 46.9 °F - 45.0 °F 93% 30.01 in 4.0 mi South 4.6 mph - N/A   Overcast
7:55 AM 48.9 °F - 46.9 °F 93% 29.99 in 4.0 mi SSE 5.8 mph - N/A   Overcast
8:20 AM 50.0 °F - 48.2 °F 94% 29.97 in 4.0 mi SSE 6.9 mph - N/A   Overcast
8:55 AM 51.1 °F - 48.9 °F 92% 29.99 in 4.0 mi SSE 6.9 mph - N/A   Overcast
9:55 AM 57.0 °F - 52.0 °F 83% 29.99 in 6.0 mi South 9.2 mph - N/A   Haze
10:09 AM 55.4 °F - 53.6 °F 94% 29.96 in 3.0 mi South 10.4 mph - N/A   Overcast
10:17 AM 55.4 °F - 53.6 °F 94% 29.96 in 1.8 mi South 8.1 mph - N/A   Overcast
10:29 AM 55.4 °F - 53.6 °F 94% 29.95 in 2.0 mi South 10.4 mph - N/A   Overcast
10:53 AM 55.4 °F - 53.6 °F 94% 29.94 in 3.0 mi South 9.2 mph - 0.01 in   Overcast
10:55 AM 55.9 °F - 54.0 °F 93% 29.96 in 3.0 mi South 9.2 mph - 0.01 in   Overcast
11:55 AM 57.9 °F - 54.0 °F 87% 29.94 in 7.0 mi South 9.2 mph - N/A   Overcast
12:30 PM 59.0 °F - 53.6 °F 82% 29.90 in 7.0 mi South 11.5 mph - N/A   Overcast
12:55 PM 60.1 °F - 54.0 °F 80% 29.91 in 8.0 mi South 10.4 mph - N/A   Overcast
1:10 PM 60.8 °F - 53.6 °F 77% 29.89 in 8.0 mi South 6.9 mph - N/A   Overcast
1:55 PM 60.1 °F - 54.0 °F 80% 29.89 in 9.0 mi South 10.4 mph - N/A   Overcast
2:15 PM 60.8 °F - 53.6 °F 77% 29.87 in 9.0 mi South 10.4 mph - N/A   Overcast
2:55 PM 60.1 °F - 54.0 °F 80% 29.89 in 9.0 mi South 6.9 mph - N/A   Overcast
3:55 PM 59.0 °F - 54.0 °F 83% 29.88 in 9.0 mi SSE 8.1 mph - N/A   Overcast
4:55 PM 57.9 °F - 53.1 °F 84% 29.87 in 8.0 mi SE 5.8 mph - N/A   Overcast
5:45 PM 57.2 °F - 53.6 °F 88% 29.84 in 9.0 mi SE 10.4 mph - N/A   Overcast
5:55 PM 57.9 °F - 54.0 °F 87% 29.86 in 9.0 mi SSE 10.4 mph - N/A   Overcast
6:55 PM 57.9 °F - 54.0 °F 87% 29.86 in 9.0 mi SSE 9.2 mph - N/A   Overcast
7:55 PM 57.9 °F - 54.0 °F 87% 29.86 in 10.0 mi South 6.9 mph - N/A   Overcast
8:55 PM 57.0 °F - 53.1 °F 87% 29.86 in 10.0 mi South 5.8 mph - N/A   Mostly Cloudy
9:55 PM 59.0 °F - 54.0 °F 83% 29.87 in 10.0 mi South 5.8 mph - N/A   Overcast
10:11 PM 59.0 °F - 53.6 °F 82% 29.86 in 10.0 mi South 5.8 mph - N/A   Overcast
10:28 PM 59.0 °F - 53.6 °F 82% 29.86 in 10.0 mi SSW 5.8 mph - N/A   Overcast
10:55 PM 60.1 °F - 54.0 °F 80% 29.87 in 10.0 mi SSW 6.9 mph - N/A   Partly Cloudy
11:55 PM 57.9 °F - 54.0 °F 87% 29.88 in 10.0 mi SSW 5.8 mph - N/A   Clear